Tracking 27420 objects as of 28-May-2023
HD Live streaming from Space Station
objects crossing your sky now

STARLINK-5940

Track STARLINK-5940 now!
10-day predictions
STARLINK-5940 is classified as:


NORAD ID: 56012
Int'l Code: 2023-042AC
Perigee: 463.7 km
Apogee: 465.8 km
Inclination: 43.0 °
Period: 93.7 minutes
Semi major axis: 6835 km
RCS: Unknown
Launch date: March 24, 2022
Source: United States (US)
Launch site: AIR FORCE EASTERN TEST RANGE (AFETR)
Your satellite tracking list
Your tracking list is empty




NASA's NSSDC Master Catalog

Two Line Element Set (TLE):
1 56012U 23042AC  23148.58334491 -.00931542  00000-0 -28294-1 0  9992
2 56012  42.9985 167.5923 0001514 277.5453  74.4015 15.36112426 10519
Source of the keplerian elements: AFSPC